Aurora, IL

5:06 PM CDT on June 23, 2017 (GMT -0500)
Aurora Municipal

Weather History for KARR - December, 2013

Change the Weather History Date:

Tuesday, December 24, 2013

  Actual Average Record
Temperature  
Mean Temperature 6 °F 23 °F  
Max Temperature 18 °F 30 °F 41 °F (2015)
Min Temperature -6 °F 16 °F -12 °F (2000)
Degree Days  
Heating Degree Days 59 42  
Month to date heating degree days 1067 936  
Since 1 July heating degree days 2517 2350  
Cooling Degree Days 0 0  
Month to date cooling degree days 0 0  
Year to date cooling degree days 745 655  
Moisture  
Dew Point -2 °F    
Average Humidity 78    
Maximum Humidity 87    
Minimum Humidity 69    
Precipitation  
Precipitation T in 0.04 in 0.73 in (2009)
Month to date precipitation 0.65 1.69  
Year to date precipitation 33.48 36.59  
Sea Level Pressure  
Sea Level Pressure 30.52 in    
Wind  
Wind Speed 9 mph (SW)    
Max Wind Speed 21 mph    
Max Gust Speed 27 mph    
Visibility 9 miles    
Events Snow    
T = Trace of Precipitation, MM = Missing Value Source: NWS Daily Summary

Daily Weather History Graph

Daily Weather History Graph

Search for Another Location

Airport or City:

Trip Planner

Search our weather history database for the weather conditions in past years. The results will help you decide how hot, cold, wet, or windy it might be!

Date:

Astronomy

Dec. 24, 2013 Rise Set
Actual Time 7:19 AM CST 4:28 PM CST
Civil Twilight 6:47 AM CST 4:59 PM CST
Nautical Twilight 6:12 AM CST 5:34 PM CST
Astronomical Twilight 5:38 AM CST 6:08 PM CST
Moon 11:42 PM CST (12/24) 11:07 AM CST (12/24)
Length of Visible Light 10h 12m
Length of Day
9h 08m
Waning Gibbous, 58% of the Moon is Illuminated
Dec 24
Waning Gibbous
Dec 25
Last Quarter
Jan 1
New
Jan 7
First Quarter
Jan 15
Full

Hourly Weather History & Observations

Time (CST) Temp. Windchill Dew Point Humidity Pressure Visibility Wind Dir Wind Speed Gust Speed Precip Events Conditions
12:52 AM -2.9 °F -21.6 °F -9.0 °F 75% 30.52 in 10.0 mi West 12.7 mph - N/A   Clear
1:52 AM -2.9 °F -22.4 °F -9.0 °F 75% 30.53 in 10.0 mi West 13.8 mph - N/A   Clear
2:52 AM -2.9 °F -21.6 °F -9.0 °F 75% 30.53 in 10.0 mi West 12.7 mph - N/A   Clear
3:52 AM -4.0 °F -23.0 °F -9.9 °F 76% 30.55 in 10.0 mi West 12.7 mph - N/A   Clear
4:52 AM -4.0 °F -23.0 °F -9.9 °F 76% 30.56 in 10.0 mi West 12.7 mph - N/A   Clear
5:11 AM -4.0 °F -20.2 °F -9.9 °F 76% 30.50 in 10.0 mi West 9.2 mph - N/A   Mostly Cloudy
5:52 AM -5.1 °F -21.5 °F -11.0 °F 76% 30.56 in 10.0 mi West 9.2 mph - N/A   Scattered Clouds
6:52 AM -5.1 °F -21.5 °F -11.0 °F 76% 30.57 in 10.0 mi West 9.2 mph - N/A   Clear
7:52 AM -5.1 °F -17.6 °F -9.9 °F 80% 30.58 in 9.0 mi West 5.8 mph - N/A   Partly Cloudy
8:04 AM -5.1 °F -19.1 °F -11.0 °F 76% 30.53 in 9.0 mi West 6.9 mph - N/A   Mostly Cloudy
8:52 AM -4.0 °F -16.3 °F -9.9 °F 76% 30.60 in 6.0 mi WNW 5.8 mph - N/A   Haze
9:17 AM -2.9 °F -19.8 °F -9.0 °F 75% 30.55 in 8.0 mi West 10.4 mph - N/A   Scattered Clouds
9:52 AM -2.0 °F -20.5 °F -8.0 °F 76% 30.63 in 9.0 mi West 12.7 mph - N/A   Clear
10:52 AM -0.9 °F -8.9 °F -6.0 °F 79% 30.61 in 9.0 mi WSW 3.5 mph - N/A   Clear
11:52 AM 1.9 °F -9.2 °F -2.9 °F 80% 30.60 in 9.0 mi West 5.8 mph - N/A   Clear
12:52 PM 5.0 °F - -0.9 °F 76% 30.56 in 9.0 mi Calm Calm - N/A   Clear
1:52 PM 7.0 °F 0.1 °F -0.9 °F 70% 30.56 in 9.0 mi West 3.5 mph - N/A   Clear
2:52 PM 9.0 °F -3.2 °F -0.0 °F 67% 30.55 in 8.0 mi South 8.1 mph - N/A   Clear
3:52 PM 8.1 °F 1.4 °F 1.0 °F 73% 30.53 in 8.0 mi SSW 3.5 mph - N/A   Clear
4:52 PM 7.0 °F 0.1 °F 1.0 °F 77% 30.51 in 9.0 mi East 3.5 mph - N/A   Clear
5:52 PM 6.1 °F -4.3 °F -0.0 °F 76% 30.50 in 9.0 mi ESE 5.8 mph - N/A   Clear
6:52 PM 12.0 °F -0.4 °F 6.1 °F 77% 30.48 in 9.0 mi SE 9.2 mph - N/A   Overcast
7:52 PM 16.0 °F 2.3 °F 10.0 °F 77% 30.48 in 10.0 mi SSE 12.7 mph - N/A   Overcast
8:52 PM 16.0 °F 1.1 °F 10.0 °F 77% 30.44 in 10.0 mi SSE 15.0 mph - N/A   Overcast
9:52 PM 17.1 °F 3.0 °F 12.0 °F 81% 30.43 in 2.5 mi SSE 13.8 mph - 0.00 in Snow Light Snow
10:03 PM 17.1 °F 3.0 °F 12.0 °F 81% 30.36 in 4.0 mi SE 13.8 mph - 0.00 in Snow Light Snow
10:52 PM 18.0 °F 6.1 °F 12.0 °F 78% 30.41 in 9.0 mi SSE 10.4 mph - 0.00 in   Overcast
11:52 PM 18.0 °F 3.1 °F 10.9 °F 74% 30.38 in 10.0 mi SSE 16.1 mph - N/A   Overcast